Location: Newark
(35.5300°N, 14.3000°E)
Time: 11:30:01
(UTC+00:00)

Transit 4A - Pass Details

Date: 24 November 2019
Orbit: 871 x 973 km, 66.8° (Epoch: 17 January)

Event Time Altitude Azimuth Distance (km) Brightness Sun altitude
Exits shadow 04:22:03 - 342° (NNW) 3,080 10.3 -17.1°
Reaches altitude 10° 04:23:33 10° 347° (NNW) 2,545 9.9 -16.8°
Maximum altitude 04:29:07 43° 58° (ENE) 1,217 8.9 -15.7°
Drops below altitude 10° 04:34:35 10° 128° (SE) 2,511 11.3 -14.6°
Sets 04:37:11 0° 135° (SE) 3,447 12.0 -14.1°
